Weather History for KMDZ - August, 2013

Change the Weather History Date:

Monday, August 19, 2013

  Actual Average Record
Temperature  
Mean Temperature 68 °F -  
Max Temperature 79 °F 76 °F 91 °F (1976)
Min Temperature 58 °F 54 °F 35 °F (2004)
Cooling Degree Days 4    
Growing Degree Days 18 (Base 50)    
Moisture  
Dew Point 59 °F    
Average Humidity 73    
Maximum Humidity 86    
Minimum Humidity 55    
Precipitation  
Precipitation 0.00 in - - ()
Sea Level Pressure  
Sea Level Pressure 30.04 in    
Wind  
Wind Speed 7 mph (SW)    
Max Wind Speed 15 mph    
Max Gust Speed 21 mph    
Visibility 10 miles    
Events      
Averages and records for this station are not official NWS values.
T = Trace of Precipitation, MM = Missing Value Source: NWS Daily Summary

Daily Weather History Graph

Daily Weather History Graph

Search for Another Location

Airport or City:

Trip Planner

Search our weather history database for the weather conditions in past years. The results will help you decide how hot, cold, wet, or windy it might be!

Date:

Astronomy

Aug. 19, 2013 Rise Set
Actual Time 6:07 AM CDT 8:00 PM CDT
Civil Twilight 5:36 AM CDT 8:32 PM CDT
Nautical Twilight 4:57 AM CDT 9:10 PM CDT
Astronomical Twilight 4:15 AM CDT 9:52 PM CDT
Moon 6:51 PM CDT (8/19) 4:25 AM CDT (8/19)
Length of Visible Light 14h 56m
Length of Day
13h 53m
Waxing Gibbous, 97% of the Moon is Illuminated
Aug 19
Waxing Gibbous
Aug 20
Full
Aug 28
Last Quarter
Sep 5
New
Sep 12
First Quarter

Hourly Weather History & Observations

Time (CDT) Temp. Dew Point Humidity Pressure Visibility Wind Dir Wind Speed Gust Speed Precip Events Conditions
12:15 AM 61.2 °F 55.4 °F 81% 30.08 in 10.0 mi SSW 6.9 mph - N/A   Clear
12:35 AM 61.2 °F 55.2 °F 81% 30.08 in 10.0 mi SSW 5.8 mph - N/A   Clear
12:55 AM 61.0 °F 55.0 °F 81% 30.08 in 10.0 mi SSW 4.6 mph - N/A   Clear
1:15 AM 60.1 °F 54.9 °F 83% 30.08 in 10.0 mi SSW 4.6 mph - N/A   Clear
1:35 AM 60.3 °F 54.9 °F 82% 30.08 in 10.0 mi SW 4.6 mph - N/A   Clear
1:55 AM 59.7 °F 54.7 °F 83% 30.08 in 10.0 mi SSW 5.8 mph - N/A   Clear
2:15 AM 59.7 °F 54.9 °F 84% 30.07 in 10.0 mi SSW 5.8 mph - N/A   Clear
2:35 AM 59.9 °F 55.0 °F 84% 30.07 in 10.0 mi SW 4.6 mph - N/A   Scattered Clouds
2:55 AM 60.1 °F 55.0 °F 83% 30.07 in 10.0 mi SSW 5.8 mph - N/A   Scattered Clouds
3:15 AM 59.4 °F 54.9 °F 85% 30.06 in 10.0 mi SSW 5.8 mph - N/A   Scattered Clouds
3:35 AM 59.0 °F 54.9 °F 86% 30.06 in 10.0 mi SSW 5.8 mph - N/A   Scattered Clouds
3:55 AM 59.0 °F 54.7 °F 86% 30.06 in 10.0 mi SSW 5.8 mph - N/A   Clear
4:15 AM 58.8 °F 54.7 °F 86% 30.06 in 10.0 mi SSW 5.8 mph - N/A   Clear
4:35 AM 58.6 °F 54.5 °F 86% 30.06 in 10.0 mi SSW 6.9 mph - N/A   Clear
4:55 AM 59.4 °F 54.9 °F 85% 30.06 in 10.0 mi SW 6.9 mph - N/A   Clear
5:15 AM 59.4 °F 54.9 °F 85% 30.06 in 10.0 mi SSW 6.9 mph - N/A   Clear
5:35 AM 59.4 °F 54.9 °F 85% 30.06 in 10.0 mi SSW 6.9 mph - N/A   Scattered Clouds
5:55 AM 59.7 °F 54.7 °F 83% 30.06 in 10.0 mi SW 8.1 mph - N/A   Clear
6:15 AM 59.5 °F 54.7 °F 84% 30.06 in 10.0 mi SSW 6.9 mph - N/A   Clear
6:35 AM 59.2 °F 54.7 °F 85% 30.05 in 10.0 mi SSW 6.9 mph - N/A   Clear
6:55 AM 59.5 °F 55.0 °F 85% 30.05 in 10.0 mi SSW 6.9 mph - N/A   Clear
7:15 AM 60.4 °F 55.4 °F 83% 30.04 in 10.0 mi SSW 5.8 mph - N/A   Clear
7:35 AM 61.2 °F 55.8 °F 82% 30.04 in 10.0 mi SSW 8.1 mph - N/A   Clear
7:55 AM 63.0 °F 56.7 °F 80% 30.04 in 10.0 mi SSW 8.1 mph - N/A   Clear
8:15 AM 64.2 °F 57.0 °F 77% 30.05 in 10.0 mi SSW 6.9 mph - N/A   Clear
8:35 AM 64.6 °F 57.0 °F 76% 30.06 in 10.0 mi SW 5.8 mph - N/A   Clear
8:55 AM 64.6 °F 57.4 °F 77% 30.06 in 10.0 mi SSW 8.1 mph - N/A   Clear
9:15 AM 65.3 °F 57.6 °F 76% 30.07 in 10.0 mi SSW 6.9 mph - N/A   Clear
9:35 AM 67.1 °F 58.5 °F 74% 30.07 in 10.0 mi SW 5.8 mph - N/A   Clear
9:55 AM 68.0 °F 58.5 °F 71% 30.07 in 10.0 mi SW 5.8 mph - N/A   Clear
10:15 AM 69.1 °F 58.5 °F 69% 30.07 in 10.0 mi SSW 9.2 mph - N/A   Clear
10:35 AM 70.5 °F 59.0 °F 67% 30.06 in 10.0 mi SSW 8.1 mph - N/A   Clear
10:55 AM 72.1 °F 59.5 °F 64% 30.06 in 10.0 mi SW 6.9 mph - N/A   Mostly Cloudy
11:15 AM 72.3 °F 59.7 °F 64% 30.06 in 10.0 mi SW 9.2 mph - N/A   Overcast
11:35 AM 73.0 °F 59.9 °F 63% 30.06 in 10.0 mi SW 11.5 mph - N/A   Scattered Clouds
11:55 AM 72.9 °F 60.1 °F 64% 30.05 in 10.0 mi SW 13.8 mph 18.4 mph N/A   Scattered Clouds
12:15 PM 72.7 °F 60.1 °F 64% 30.04 in 10.0 mi SSW 12.7 mph 16.1 mph N/A   Clear
12:35 PM 74.3 °F 60.6 °F 62% 30.03 in 10.0 mi SW 10.4 mph - N/A   Clear
12:55 PM 73.9 °F 60.8 °F 63% 30.02 in 10.0 mi WSW 9.2 mph 18.4 mph N/A   Clear
1:15 PM 76.5 °F 61.3 °F 59% 30.03 in 10.0 mi WSW 9.2 mph - N/A   Clear
1:35 PM 79.2 °F 61.9 °F 55% 30.02 in 10.0 mi SW 13.8 mph - N/A   Scattered Clouds
1:55 PM 77.2 °F 61.7 °F 59% 30.02 in 10.0 mi SW 12.7 mph 18.4 mph N/A   Mostly Cloudy
2:15 PM 77.9 °F 61.3 °F 57% 30.02 in 10.0 mi WSW 9.2 mph - N/A   Overcast
2:35 PM 77.0 °F 61.3 °F 58% 30.02 in 10.0 mi WSW 9.2 mph - N/A   Overcast
2:55 PM 77.7 °F 61.7 °F 58% 30.02 in 10.0 mi SW 9.2 mph 16.1 mph N/A   Overcast
3:15 PM 78.1 °F 61.2 °F 56% 30.02 in 10.0 mi WSW 9.2 mph 19.6 mph N/A   Mostly Cloudy
3:35 PM 78.4 °F 61.7 °F 56% 30.02 in 10.0 mi West 15.0 mph 20.7 mph N/A   Scattered Clouds
3:55 PM 78.1 °F 62.2 °F 58% 30.02 in 10.0 mi WSW 8.1 mph 16.1 mph N/A   Scattered Clouds
4:15 PM 79.2 °F 62.4 °F 56% 30.02 in 10.0 mi WSW 11.5 mph 17.3 mph N/A   Scattered Clouds
4:35 PM 78.8 °F 62.2 °F 57% 30.01 in 10.0 mi SW 12.7 mph 16.1 mph N/A   Clear
4:55 PM 78.8 °F 62.6 °F 57% 30.01 in 10.0 mi WSW 11.5 mph 16.1 mph N/A   Clear
5:15 PM 78.3 °F 62.4 °F 58% 30.01 in 10.0 mi SW 11.5 mph - N/A   Scattered Clouds
5:35 PM 78.4 °F 62.2 °F 57% 30.01 in 10.0 mi SW 9.2 mph - N/A   Scattered Clouds
5:55 PM 77.5 °F 62.4 °F 59% 30.00 in 10.0 mi SW 9.2 mph - N/A   Scattered Clouds
6:15 PM 77.7 °F 62.6 °F 60% 30.00 in 10.0 mi SW 9.2 mph - N/A   Scattered Clouds
6:35 PM 77.2 °F 62.8 °F 61% 30.00 in 10.0 mi SW 9.2 mph - N/A   Clear
6:55 PM 76.5 °F 62.8 °F 62% 30.00 in 10.0 mi SW 5.8 mph - N/A   Clear
7:15 PM 74.8 °F 63.0 °F 66% 30.00 in 10.0 mi SW 6.9 mph - N/A   Clear
7:35 PM 73.9 °F 62.8 °F 68% 29.99 in 10.0 mi SSW 6.9 mph - N/A   Clear
7:55 PM 72.9 °F 62.4 °F 70% 30.00 in 10.0 mi SSW 8.1 mph - N/A   Clear
8:15 PM 71.6 °F 62.2 °F 72% 30.00 in 10.0 mi SSW 5.8 mph - N/A   Clear
8:35 PM 71.6 °F 62.6 °F 73% 30.00 in 10.0 mi SSW 9.2 mph - N/A   Clear
8:55 PM 70.5 °F 62.6 °F 76% 30.00 in 10.0 mi South 5.8 mph - N/A   Clear
9:15 PM 70.2 °F 62.2 °F 76% 30.00 in 10.0 mi SSW 6.9 mph - N/A   Clear
9:35 PM 69.1 °F 62.2 °F 79% 30.00 in 10.0 mi SSW 8.1 mph - N/A   Clear
9:55 PM 69.3 °F 62.6 °F 79% 30.00 in 10.0 mi SSW 8.1 mph - N/A   Clear
10:15 PM 69.1 °F 62.6 °F 80% 30.01 in 10.0 mi SW 6.9 mph - N/A   Clear
10:35 PM 68.2 °F 62.6 °F 82% 30.01 in 10.0 mi SW 5.8 mph - N/A   Clear
10:55 PM 67.8 °F 62.6 °F 83% 30.01 in 10.0 mi SSW 6.9 mph - N/A   Clear
11:15 PM 67.1 °F 62.2 °F 84% 30.00 in 10.0 mi SSW 8.1 mph - N/A   Clear
11:35 PM 67.6 °F 62.6 °F 84% 30.01 in 10.0 mi SSW 8.1 mph - N/A   Clear
11:55 PM 67.5 °F 62.6 °F 84% 30.01 in 10.0 mi SW 9.2 mph - N/A   Clear